This is the latest recevied weather packets stored in our database for station/object W5GMO. If no packets are shown the sender has not sent any weather packets the latest 10 day(s).
| Time | Temp. | Humidity | Pressure | Rain* | Wind** | Luminosity | Snow |
|---|---|---|---|---|---|---|---|
| 1788288901 | 35.56° C | 1% | 1015.6 hPa | 0 mm | - | 702 W/m² | - |
| 1788288601 | 35.56° C | 1% | 1015.8 hPa | 0 mm | - | 392 W/m² | - |
| 1788288296 | 35.56° C | 1% | 1015.9 hPa | 0 mm | - | 170 W/m² | - |
| 1788287991 | 35.56° C | 1% | 1015.6 hPa | 0 mm | - | 681 W/m² | - |
| 1788287691 | 35.56° C | 1% | 1015.5 hPa | 0 mm | - | 624 W/m² | - |
| 1788287386 | 36.11° C | 1% | 1015.8 hPa | 0 mm | - | 348 W/m² | - |
| 1788287083 | 36.67° C | 1% | 1015.4 hPa | 0 mm | - | 684 W/m² | - |
| 1788286777 | 35.56° C | 1% | 1015.5 hPa | 0 mm | - | 679 W/m² | - |
| 1788286472 | 35° C | 1% | 1015.4 hPa | 0 mm | - | 687 W/m² | - |
| 1788286171 | 35.56° C | 1% | 1015.4 hPa | 0 mm | - | 691 W/m² | - |
| 1788285870 | 34.44° C | 1% | 1015.4 hPa | 0 mm | - | 717 W/m² | - |
| 1788285568 | 34.44° C | 1% | 1015.6 hPa | 0 mm | - | 717 W/m² | - |
| 1788285264 | 35° C | 1% | 1015.6 hPa | 0 mm | - | 742 W/m² | - |
| 1788284959 | 34.44° C | 1% | 1015.8 hPa | 0 mm | - | 368 W/m² | - |
| 1788284654 | 34.44° C | 1% | 1015.6 hPa | 0 mm | - | 279 W/m² | - |
| 1788284350 | 34.44° C | 1% | 1015.5 hPa | 0 mm | - | 533 W/m² | - |
| 1788284045 | 34.44° C | 1% | 1015.6 hPa | 0 mm | - | 463 W/m² | - |
| 1788283741 | 34.44° C | 1% | 1015.6 hPa | 0 mm | - | 604 W/m² | - |
| 1788283440 | 33.89° C | 1% | 1015.5 hPa | 0 mm | - | 367 W/m² | - |
| 1788283139 | 33.89° C | 1% | 1015.6 hPa | 0 mm | - | 357 W/m² | - |
| 1788282837 | 35° C | 1% | 1015.5 hPa | 0 mm | - | 308 W/m² | - |
| 1788282536 | 35.56° C | 1% | 1015.8 hPa | 0 mm | - | 917 W/m² | - |
| 1788282232 | 35.56° C | 1% | 1015.9 hPa | 0 mm | - | 475 W/m² | - |
| 1788281926 | 35° C | 1% | 1016 hPa | 0 mm | - | 753 W/m² | - |
| 1788281619 | 33.89° C | 1% | 1015.9 hPa | 0 mm | - | 506 W/m² | - |
* Rain latest hour (hover to see other rain measurements)
** Current wind speed in m/s (hover to see current wind gust speed)